Tracking 28790 objects as of 19-Apr-2024
HD Live streaming from Space Station
objects crossing your sky now

COSMOS 2129

Track COSMOS 2129 now!
10-day predictions
COSMOS 2129 is classified as:


NORAD ID: 21104
Int'l Code: 1991-009E
Perigee: 1,437.0 km
Apogee: 1,475.2 km
Inclination: 74.0 °
Period: 114.9 minutes
Semi major axis: 7827 km
RCS: 0.6817 m2 (medium)
Launch date: February 12, 1991
Source: Commonwealth of Independent States (former USSR) (CIS)
Launch site: PLESETSK MISSILE AND SPACE COMPLEX (PKMTR)
Your satellite tracking list
Your tracking list is empty




NASA's NSSDC Master Catalog

Two Line Element Set (TLE):
1 21104U 91009E   24109.63173126 -.00000003  00000-0  78093-4 0  9997
2 21104  74.0300 175.8776 0024374 126.1893 346.5629 12.53722990518565
Source of the keplerian elements: AFSPC